Weather History for KAPF - June, 2013

Change the Weather History Date:

Sunday, June 16, 2013

  Actual Average Record
Temperature  
Mean Temperature 84 °F 82 °F  
Max Temperature 91 °F 90 °F 96 °F (1981)
Min Temperature 77 °F 74 °F 65 °F (1974)
Degree Days  
Heating Degree Days 0 0  
Month to date heating degree days 0 0  
Since 1 June heating degree days 0 0  
Since 1 July heating degree days 182 260  
Cooling Degree Days 19 17  
Month to date cooling degree days 252 262  
Year to date cooling degree days 1356 1290  
Since 1 June cooling degree days 252 262  
Growing Degree Days 34 (Base 50)    
Moisture  
Dew Point 75 °F    
Average Humidity 77    
Maximum Humidity 94    
Minimum Humidity 59    
Precipitation  
Precipitation 0.01 in 0.34 in 2.16 in (1955)
Month to date precipitation 3.37 3.98  
Year to date precipitation 13.71 15.83  
Snow  
Snow 0.00 in - - ()
Month to date snowfall 0.0  
Since 1 June snowfall 0.0  
Since 1 July snowfall 0.0  
Snow Depth 0.00 in    
Sea Level Pressure  
Sea Level Pressure 30.05 in    
Wind  
Wind Speed 5 mph (South)    
Max Wind Speed 17 mph    
Max Gust Speed 23 mph    
Visibility 10 miles    
Events Rain , Thunderstorm    
T = Trace of Precipitation, MM = Missing Value Source: NWS Daily Summary

Daily Weather History Graph

Daily Weather History Graph

Search for Another Location

Airport or City:

Trip Planner

Search our weather history database for the weather conditions in past years. The results will help you decide how hot, cold, wet, or windy it might be!

Date:

Astronomy

Jun. 16, 2013 Rise Set
Actual Time 6:34 AM EDT 8:21 PM EDT
Civil Twilight 6:08 AM EDT 8:47 PM EDT
Nautical Twilight 5:37 AM EDT 9:18 PM EDT
Astronomical Twilight 5:04 AM EDT 9:51 PM EDT
Moon 1:29 PM EDT (6/16) 1:01 AM EDT (6/16)
Length of Visible Light 14h 38m
Length of Day
13h 46m
Waxing Crescent, 49% of the Moon is Illuminated
Jun 16
Waxing Crescent
Jun 16
First Quarter
Jun 23
Full
Jun 30
Last Quarter
Jul 8
New

Hourly Weather History & Observations

Time (EDT) Temp. Heat Index Dew Point Humidity Pressure Visibility Wind Dir Wind Speed Gust Speed Precip Events Conditions
12:53 AM 81.0 °F 86.2 °F 73.9 °F 79% 30.05 in 10.0 mi NE 3.5 mph - N/A   Scattered Clouds
1:53 AM 80.1 °F 85.1 °F 75.0 °F 85% 30.04 in 10.0 mi ENE 3.5 mph - N/A   Clear
2:53 AM 79.0 °F - 75.0 °F 88% 30.03 in 10.0 mi SSE 3.5 mph - N/A   Clear
3:53 AM 79.0 °F - 75.0 °F 88% 30.02 in 10.0 mi Calm Calm - N/A   Clear
4:53 AM 79.0 °F - 75.0 °F 88% 30.02 in 9.0 mi Calm Calm - N/A   Clear
5:53 AM 78.1 °F - 75.0 °F 90% 30.03 in 9.0 mi Calm Calm - N/A   Clear
6:53 AM 77.0 °F - 75.0 °F 94% 30.04 in 8.0 mi Calm Calm - N/A   Clear
7:53 AM 79.0 °F - 75.0 °F 88% 30.05 in 8.0 mi East 5.8 mph - N/A   Clear
8:53 AM 84.0 °F 91.9 °F 75.0 °F 74% 30.07 in 10.0 mi Variable 3.5 mph - N/A   Clear
9:53 AM 87.1 °F 95.4 °F 73.9 °F 65% 30.07 in 10.0 mi NE 3.5 mph - N/A   Clear
10:53 AM 87.1 °F 94.5 °F 73.0 °F 63% 30.06 in 10.0 mi East 5.8 mph - N/A   Partly Cloudy
11:53 AM 90.0 °F 99.0 °F 73.9 °F 59% 30.06 in 10.0 mi East 6.9 mph - N/A   Scattered Clouds
12:53 PM 87.1 °F 96.3 °F 75.0 °F 67% 30.06 in 10.0 mi SW 9.2 mph - N/A   Mostly Cloudy
1:53 PM 88.0 °F 98.5 °F 75.9 °F 67% 30.06 in 10.0 mi WSW 11.5 mph - N/A   Partly Cloudy
2:53 PM 89.1 °F 99.1 °F 75.0 °F 63% 30.05 in 10.0 mi WSW 12.7 mph - N/A   Clear
3:53 PM 88.0 °F 98.5 °F 75.9 °F 67% 30.03 in 10.0 mi WSW 9.2 mph - N/A   Mostly Cloudy
4:53 PM 88.0 °F 97.5 °F 75.0 °F 65% 30.02 in 10.0 mi WSW 9.2 mph - N/A   Partly Cloudy
5:53 PM 86.0 °F 93.8 °F 73.9 °F 67% 30.01 in 10.0 mi West 8.1 mph - N/A   Scattered Clouds
6:53 PM 87.1 °F 96.3 °F 75.0 °F 67% 30.03 in 10.0 mi West 9.2 mph - N/A   Clear
7:53 PM 84.9 °F 93.3 °F 75.0 °F 72% 30.03 in 10.0 mi WNW 5.8 mph - N/A   Clear
8:53 PM 84.9 °F 93.3 °F 75.0 °F 72% 30.04 in 10.0 mi Calm Calm - N/A   Scattered Clouds
9:53 PM 84.0 °F 90.2 °F 73.0 °F 69% 30.06 in 10.0 mi Calm Calm - N/A   Overcast
10:42 PM 82.4 °F 88.2 °F 73.4 °F 74% 30.08 in 10.0 mi ESE 4.6 mph - N/A Thunderstorm Overcast
10:53 PM 82.0 °F 87.4 °F 73.0 °F 74% 30.08 in 10.0 mi SE 5.8 mph - N/A Thunderstorm Overcast
11:53 PM 77.0 °F - 73.0 °F 88% 30.10 in 8.0 mi Variable 6.9 mph - 0.00 in Rain , Thunderstorm Light Thunderstorms and Rain